map of CMN home
CMN - Airport
Location
City:  Casablanca, Meknčs-Tafilalet, Morocco
Name:Mohammed V International Airport
ICAO:GMMN
IATA:CMN

Details
Type:Airport (Aerodrome, Airfield)
Use:Public/Civil, International (customs port of entry)
Latitude:33°21'51"N (33.364167)
Longitude:7°34'54"W (-7.581666)
Elevation:656 ft (200 m)
Variation:1.70°W (WMM2015 magnetic declination)
0.11° annual change
Runways:2
Longest:12205 × 148 ft (3720 × 45 m), paved

Time
Time Zone:UTC+0 (DST+1)
Local Time:

Weather
METAR:GMMN 120730Z 18003KT 150V220 6000 FEW016 07/07 Q1024 NOSIG
TAF:GMMN 120500Z 1206/1312 18004KT 5000 SCT016
TEMPO 1206/1208 3000 BR BKN010
BECMG 1209/1212 36010KT 9999
BECMG 1218/1222 20008KT
BECMG 1300/1302 18004KT BKN016

Related Locations
Nearby:
Farthest:KAT: 12304 mi / 19801 km
Kaitaia, NTL, NZ

Find:

   beyond  
but within

Other Information
Maps:
NOTAMs:
Links:
Sources:

  
  • flag of Morocco
  

Sectional Chart

Flight Planning
at skyvector.com

Satellite Image

Google Maps Satellite view

 

Copyright © 2004-2018 Karl L. Swartz. All rights reserved.
The Great Circle Mapper name and logo are trademarks of the Great Circle Mapper.
All other trademarks mentioned herein belong to their respective owners.
Please see credits for attibutions and further copyright information.

  Follow gcmap on Facebook Follow gcmap on Twitter Follow gcmap on Google+ GCmap on LinkedIn

hCard Microformat

Geo Microformat